Regional Weather Roundup
Issued by NWS Upton, NY

Current Version | Previous Version | Text Only | Print | Product List | Glossary On
Versions: 1 2 3 4 5 6 7 8 9 10 11 12 13 14 15 16 17 18 19 20 21 22 23 24 25 26 27 28 29 30 31 32 33 34 35 36 37 38 39 40 41 42 43 44 45 46 47 48 49 50
000 ASUS41 KOKX 220409 RWROKX REGIONAL WEATHER ROUNDUP NATIONAL WEATHER SERVICE NEW YORK NY 1200 AM EDT THU JUN 22 2017 NOTE: "FAIR" INDICATES FEW OR NO CLOUDS BELOW 12,000 FEET WITH NO SIGNIFICANT WEATHER AND/OR OBSTRUCTIONS TO VISIBILITY. NYZ071-072-176-178-NJZ106-104-220500- NEW YORK CITY METRO AREA CITY SKY/WX TMP DP RH WIND PRES REMARKS Central Park CLEAR 74 60 61 CALM 29.97R Bronx Bot Gard N/A 73 57 56 NW3 29.97R LaGuardia APRT PTCLDY 76 60 57 W7 29.94R Kennedy INTL PTCLDY 72 66 81 SW13 29.96R Breezy Point N/A 68 N/A N/A W7 N/A Newark/Liberty PTCLDY 72 61 68 SW12 29.95R Teterboro CLEAR 72 60 66 NW6 29.94R $$ NYZ177-179-078>081-220500- LONG ISLAND NEW YORK CITY SKY/WX TMP DP RH WIND PRES REMARKS Jones Beach N/A 68 N/A N/A W9G15 N/A Matinecock PT N/A N/A N/A N/A SW2 N/A Farmingdale NOT AVBL MacArthur/ISP PTCLDY 66 63 90 SW5 29.94R Shirley CLEAR 67 64 90 W5 29.95R Mt Sinai Harb N/A 68 N/A N/A S2 N/A Westhampton CLEAR 63 59 87 CALM 29.96R East Hampton FAIR 66 60 78 W3 29.94R Montauk N/A 67 63 87 W3 29.95R $$ NYZ052-065-067-220500- HUDSON VALLEY CITY SKY/WX TMP DP RH WIND PRES REMARKS White Plains PTCLDY 66 59 77 NW6 29.95R Larchmont Harb N/A 72 N/A N/A W5 N/A Croton O-T Hud N/A 66 N/A N/A MISG N/A Newburgh CLEAR 64 59 82 NW5 29.98R Montgomery CLEAR 60 57 89 CALM 29.97R Poughkeepsie CLEAR 61 58 90 CALM 29.95R Albany CLEAR 65 49 56 W9 29.96S $$ NJZ001-105-106-008-010-013-015-019>022-104-220500- NEW JERSEY CITY SKY/WX TMP DP RH WIND PRES REMARKS Newark/Liberty PTCLDY 72 61 68 SW12 29.95R Teterboro CLEAR 72 60 66 NW6 29.94R Caldwell CLEAR 68 60 75 CALM 29.97R Somerville CLEAR 61 61 100 CALM 29.95R Linden FAIR 71 60 67 W5 29.96R Perth Amboy N/A 70 N/A N/A W10 N/A Sussex CLEAR 60 59 96 CALM 29.97S Andover N/A 62 60 93 CALM 29.98R Trenton CLEAR 67 64 90 CALM 29.97R Millville PTCLDY 67 67 100 CALM 29.98S FOG Atlantic City MOCLDY 69 67 93 S3 29.98R Wrightstown CLEAR 65 64 95 SW6 29.95R Toms River CLEAR 65 63 93 SW5 29.98S Belmar CLEAR 66 64 93 SW5 29.98R $$ PAZ047>061-062-071-220500- EASTERN PENNSYLVANIA CITY SKY/WX TMP DP RH WIND PRES REMARKS Philadelphia MOCLDY 71 66 84 S7 29.98R Allentown CLEAR 68 62 81 SW3 29.97R Scranton CLEAR 63 56 78 E7 30.00R $$ CTZ002-004>006-009-010-012-RIZ004-006-007-MAZ004-011-015-220500- SOUTHERN NEW ENGLAND IN CT CITY SKY/WX TMP DP RH WIND PRES REMARKS Bradley INTL CLEAR 64 56 75 W3 29.94R Hartford CLEAR 66 59 78 CALM 29.94R Danbury CLEAR 60 58 92 SW5 29.98R Wtrbury/Oxford CLEAR 63 54 72 N6 29.98R Bridgeport CLEAR 69 61 75 N5 29.94R Meriden CLEAR 61 59 93 CALM 29.95R New Haven NOT AVBL Chester FAIR 66 59 77 CALM 29.95R Groton CLEAR 66 62 87 SW6 29.93R Wilimantic CLEAR 65 62 90 CALM 29.95R IN RI CITY SKY/WX TMP DP RH WIND PRES REMARKS Providence PTCLDY 68 60 75 W5 29.93R Block Island CLEAR 64 62 93 W9 29.94R Westerly CLEAR 68 63 84 CALM 29.94R IN MA CITY SKY/WX TMP DP RH WIND PRES REMARKS Boston PTCLDY 72 50 45 W12 29.90R Worcester CLEAR 65 47 52 W15G22 29.95S Westfield NOT AVBL Provincetown CLEAR 61 60 97 SW5 29.91R Nantucket CLOUDY 61 61 100 W12 29.91S FOG $$ ANZ330-335-338-340-345-350-353-355-220500- COASTAL MARINE OBSERVATIONS STATION/POSITION TIME SKY/WX TEMP WIND PRES VSBY WAVE AIR SEA DIR/SP/G HT/PER (UTC) (F) (DEG/KT/KT) (MB) (MI) (FT/S) NY HARB ENTRANCE 0250 67 63 230/ 14/ 16 1013.7 3/ 6 20 S FIRE ISLAND 0350 68 67 240/ 16/ 19 1013.5 4/ 6 GREAT SOUTH BAY 0330 71 75 260/ 14/ 17 N/A 23 SSW MONTAUK P 0250 65 63 1013.5 5/ 6 15 E BARNEGAT LI 0330 64 N/A 4/ 6 HUDSON CANYON 0250 68 65 210/ 16/ 17 1014.2 5/ 6 KINGS POINT 0330 71 63 300/ 5/ 6 1013.7 EXECUTION ROCKS 0345 70 310/ 4/ 6 N/A CENTRAL LI SOUND 0330 69 290/ 6/ 6 N/A 1 EASTERN LI SOUND NOT AVBL ROBBINS REEF 0348 250/ 12/ 14 1014.6 $$ >>>>>>>>>>>>>>>>>>>>>>>>>>>> KEY <<<<<<<<<<<<<<<<<<<<<<<<<<< > < > SKY/WX - Sky Condition/Present Weather < > TMP - Temperature in Fahrenheit < > DP - Dew Point in Fahrenheit < > RH - Relative Humidity in Percent < > WIND - Direction (from) and Speed in MPH < > PRES - Mean Sea Level Pressure (inches of Hg) < > WCI - Wind Chill Index < > VSB - VISIBILITY IN MILES < > HX - HEAT INDEX < > TC - TEMPERATURE IN CELSIUS < > VRB - VARIABLE WIND DIRECTION < > < >>>>>>>>>>>>>>>>>>>>>>>>>>>> KEY <<<<<<<<<<<<<<<<<<<<<<<<<<<

USA.gov is the U.S. government's official web portal to all federal, state and local government web resources and services.